Location: Newark
(40.9833°N, 0.0333°W)
Time: 11:10:07
(UTC+00:00)

NOAA 15 - Visible Passes

Search period start: 19 November 2019 00:00
Search period end: 29 November 2019 00:00
Orbit: 797 x 813 km, 98.7° (Epoch: 18 November)

Date Brightness Start Highest point End Pass type
(mag) Time Alt. Az. Time Alt. Az. Time Alt. Az.
19 Nov 7.7 06:04:51 10° ENE 06:07:31 14° E 06:10:10 10° ESE visible
19 Nov 5.6 17:24:05 10° ESE 17:28:14 24° ENE 17:32:22 10° NNE visible
19 Nov 5.6 19:02:39 10° S 19:07:42 45° W 19:12:46 10° NNW visible
20 Nov 4.7 18:37:16 10° S 18:42:34 77° WSW 18:47:52 10° NNW visible
21 Nov 4.5 18:12:18 10° SSE 18:17:31 64° ENE 18:22:45 10° N visible
21 Nov 7.3 19:54:35 10° SW 19:57:43 16° W 20:00:51 10° NW visible
22 Nov 5.0 17:47:43 10° SE 17:52:34 38° ENE 17:57:25 10° N visible
22 Nov 6.5 19:27:59 10° SSW 19:32:24 27° W 19:36:50 10° NW visible
23 Nov 7.7 06:04:23 10° ENE 06:06:59 14° E 06:09:34 10° ESE visible
23 Nov 5.6 17:23:36 10° ESE 17:27:42 24° ENE 17:31:49 10° NNE visible
23 Nov 5.6 19:02:07 10° S 19:07:10 45° W 19:12:14 10° NNW visible
24 Nov 4.7 18:36:45 10° S 18:42:02 78° WSW 18:47:20 10° NNW visible
25 Nov 4.5 18:11:47 10° SSE 18:17:00 63° ENE 18:22:13 10° N visible
25 Nov 7.3 19:54:01 10° SW 19:57:11 16° W 20:00:21 10° NW visible
26 Nov 7.3 06:27:38 10° NE 06:31:47 23° E 06:35:55 10° SSE visible
26 Nov 5.0 17:47:13 10° SE 17:52:03 37° ENE 17:56:52 10° N visible
26 Nov 6.5 19:27:25 10° SSW 19:31:52 27° W 19:36:19 10° NW visible
27 Nov 7.7 06:03:55 10° ENE 06:06:26 13° E 06:08:58 10° ESE visible
27 Nov 5.6 17:23:07 10° ESE 17:27:11 23° ENE 17:31:15 10° NNE visible
27 Nov 5.6 19:01:35 10° S 19:06:39 46° W 19:11:43 10° NNW visible
28 Nov 6.1 16:59:42 10° E 17:02:25 14° ENE 17:05:08 10° NNE visible
28 Nov 4.6 18:36:14 10° S 18:41:30 79° WSW 18:46:48 10° NNW visible
